BCS3905 EKCH-ESGG

Flight info

Callsign BCS3905
Flight time 0h 35m
Altitude 16000
Route VEDAR L997 RISMA
Aircraft B738/M-SDE2E3FGHIRWXY/LB1

Departure

Time 2026-04-23 17:12
Airport Copenhagen Kastrup Airport (EKCH)

Arrival

Time 2026-04-23 17:47
Airport Göteborg Landvetter Airport (ESGG)
Time Latitude Longitude Altitude Speed Heading
2026-04-23 16:55 55.61720 12.67214 14 ft 0 kts 79°
2026-04-23 17:01 55.61719 12.67204 14 ft 2 kts 79°
2026-04-23 17:01 55.61715 12.67169 14 ft 4 kts 79°
2026-04-23 17:01 55.61709 12.67107 16 ft 6 kts 85°
2026-04-23 17:01 55.61721 12.67052 16 ft 0 kts 165°
2026-04-23 17:02 55.61720 12.67052 16 ft 1 kts 165°
2026-04-23 17:03 55.61684 12.67056 15 ft 11 kts 176°
2026-04-23 17:03 55.61571 12.67080 17 ft 20 kts 171°
2026-04-23 17:03 55.61413 12.67129 16 ft 24 kts 173°
2026-04-23 17:03 55.61296 12.67007 20 ft 22 kts 273°
2026-04-23 17:04 55.61363 12.66769 19 ft 21 kts 302°
2026-04-23 17:04 55.61446 12.66545 18 ft 23 kts 304°
2026-04-23 17:04 55.61534 12.66309 18 ft 24 kts 303°
2026-04-23 17:04 55.61627 12.66059 22 ft 24 kts 304°
2026-04-23 17:05 55.61696 12.65869 23 ft 0 kts 302°
2026-04-23 17:06 55.61707 12.65836 26 ft 6 kts 303°
2026-04-23 17:07 55.61743 12.65737 21 ft 13 kts 302°
2026-04-23 17:07 55.61815 12.65543 19 ft 23 kts 304°
2026-04-23 17:07 55.61920 12.65260 17 ft 30 kts 303°
2026-04-23 17:07 55.61996 12.64956 20 ft 22 kts 239°
2026-04-23 17:08 55.61871 12.64794 18 ft 22 kts 214°
2026-04-23 17:08 55.61743 12.64646 21 ft 22 kts 213°
2026-04-23 17:08 55.61605 12.64484 24 ft 26 kts 213°
2026-04-23 17:08 55.61443 12.64302 22 ft 30 kts 213°
2026-04-23 17:09 55.61255 12.64081 18 ft 34 kts 213°
2026-04-23 17:09 55.61049 12.63842 20 ft 36 kts 212°
2026-04-23 17:09 55.60924 12.63699 22 ft 32 kts 212°
2026-04-23 17:09 55.60810 12.63605 20 ft 11 kts 179°
2026-04-23 17:10 55.60748 12.63665 21 ft 10 kts 131°
2026-04-23 17:10 55.60739 12.63685 21 ft 0 kts 129°
2026-04-23 17:10 55.60736 12.63690 21 ft 2 kts 129°
2026-04-23 17:10 55.60684 12.63820 24 ft 18 kts 105°
2026-04-23 17:11 55.60721 12.63944 23 ft 18 kts 41°
2026-04-23 17:11 55.60740 12.63974 24 ft 0 kts 42°
2026-04-23 17:12 55.60972 12.64330 19 ft 94 kts 41°
2026-04-23 17:12 55.61693 12.65404 101 ft 169 kts 36°
2026-04-23 17:12 55.62647 12.66891 795 ft 199 kts 40°
2026-04-23 17:13 55.63679 12.68631 1686 ft 208 kts 37°
2026-04-23 17:13 55.64763 12.70252 2758 ft 197 kts 25°
2026-04-23 17:13 55.65995 12.70897 3726 ft 178 kts 357°
2026-04-23 17:13 55.67268 12.70721 4340 ft 190 kts 348°
2026-04-23 17:14 55.68626 12.70278 4631 ft 215 kts 347°
2026-04-23 17:14 55.70153 12.69918 5216 ft 220 kts 354°
2026-04-23 17:14 55.71674 12.69721 6011 ft 221 kts 355°
2026-04-23 17:14 55.73232 12.69514 6679 ft 225 kts 354°
2026-04-23 17:15 55.74794 12.69330 7328 ft 234 kts 355°
2026-04-23 17:15 55.76505 12.69180 7773 ft 254 kts 356°
2026-04-23 17:15 55.78284 12.69017 8713 ft 256 kts 356°
2026-04-23 17:15 55.80068 12.68830 9730 ft 258 kts 352°
2026-04-23 17:16 55.81764 12.67730 10548 ft 268 kts 329°
2026-04-23 17:16 55.83172 12.65289 10793 ft 302 kts 306°
2026-04-23 17:16 55.84114 12.61791 11263 ft 322 kts 295°
2026-04-23 17:16 55.84933 12.58021 12025 ft 330 kts 294°
2026-04-23 17:17 55.85748 12.54175 12852 ft 335 kts 294°
2026-04-23 17:17 55.86891 12.50619 13764 ft 330 kts 316°
2026-04-23 17:17 55.88721 12.48245 14752 ft 324 kts 335°
2026-04-23 17:17 55.90834 12.46922 15635 ft 323 kts 346°
2026-04-23 17:18 55.95195 12.45076 16120 ft 321 kts 348°
2026-04-23 17:18 55.97383 12.44207 16138 ft 323 kts 348°
2026-04-23 17:18 55.99584 12.43324 16143 ft 324 kts 348°
2026-04-23 17:19 56.01783 12.42428 16140 ft 325 kts 348°
2026-04-23 17:19 56.03984 12.41519 16143 ft 325 kts 348°
2026-04-23 17:19 56.06189 12.40599 16135 ft 325 kts 347°
2026-04-23 17:19 56.08390 12.39674 16127 ft 325 kts 347°
2026-04-23 17:20 56.10589 12.38745 16134 ft 324 kts 347°
2026-04-23 17:20 56.14970 12.36885 16132 ft 323 kts 347°
2026-04-23 17:21 56.19338 12.35022 16131 ft 322 kts 347°
2026-04-23 17:21 56.21517 12.34091 16138 ft 322 kts 347°
2026-04-23 17:21 56.25841 12.32239 16134 ft 321 kts 347°
2026-04-23 17:22 56.28015 12.31307 16136 ft 321 kts 347°
2026-04-23 17:22 56.32359 12.29440 16131 ft 321 kts 347°
2026-04-23 17:23 56.36710 12.27566 16132 ft 321 kts 347°
2026-04-23 17:23 56.38884 12.26628 16136 ft 321 kts 347°
2026-04-23 17:23 56.43229 12.24750 16133 ft 321 kts 347°
2026-04-23 17:24 56.45403 12.23809 16133 ft 321 kts 347°
2026-04-23 17:24 56.47578 12.22867 16135 ft 321 kts 347°
2026-04-23 17:24 56.51921 12.20981 16131 ft 321 kts 347°
2026-04-23 17:25 56.56260 12.19091 16132 ft 321 kts 347°
2026-04-23 17:25 56.58430 12.18145 16128 ft 321 kts 347°
2026-04-23 17:26 56.62768 12.16250 16133 ft 320 kts 347°
2026-04-23 17:26 56.67070 12.14365 16133 ft 320 kts 347°
2026-04-23 17:27 56.71444 12.12926 16128 ft 319 kts 360°
2026-04-23 17:27 56.73665 12.13068 16137 ft 319 kts
2026-04-23 17:27 56.75882 12.13273 16132 ft 319 kts
2026-04-23 17:27 56.78101 12.13488 16133 ft 319 kts
2026-04-23 17:28 56.80320 12.13698 16135 ft 319 kts
2026-04-23 17:28 56.82537 12.13902 16133 ft 319 kts
2026-04-23 17:28 56.84757 12.14101 16137 ft 319 kts
2026-04-23 17:28 56.86973 12.14294 16131 ft 319 kts
2026-04-23 17:29 56.89191 12.14486 16130 ft 319 kts
2026-04-23 17:29 56.91407 12.14675 16128 ft 319 kts
2026-04-23 17:29 56.95834 12.15051 16132 ft 318 kts
2026-04-23 17:30 56.98048 12.15238 16131 ft 318 kts
2026-04-23 17:30 57.02475 12.15613 16129 ft 318 kts
2026-04-23 17:30 57.04655 12.15798 16128 ft 315 kts
2026-04-23 17:31 57.06839 12.15984 16117 ft 305 kts
2026-04-23 17:31 57.08932 12.16162 16123 ft 300 kts
2026-04-23 17:31 57.10988 12.16336 16130 ft 299 kts
2026-04-23 17:31 57.13068 12.16513 16092 ft 301 kts
2026-04-23 17:32 57.15169 12.16691 15862 ft 300 kts
2026-04-23 17:32 57.17248 12.16869 15551 ft 300 kts
2026-04-23 17:32 57.19329 12.17046 15228 ft 297 kts
2026-04-23 17:32 57.21386 12.17222 14885 ft 295 kts
2026-04-23 17:33 57.23433 12.17397 14542 ft 293 kts
2026-04-23 17:33 57.25466 12.17571 14195 ft 292 kts
2026-04-23 17:33 57.27488 12.17745 13846 ft 290 kts
2026-04-23 17:33 57.29502 12.17918 13516 ft 287 kts
2026-04-23 17:34 57.31487 12.18088 13173 ft 285 kts
2026-04-23 17:34 57.33460 12.18258 12833 ft 282 kts
2026-04-23 17:34 57.37347 12.18593 12183 ft 277 kts
2026-04-23 17:35 57.39267 12.18759 11860 ft 275 kts
2026-04-23 17:35 57.43070 12.19087 11219 ft 272 kts
2026-04-23 17:35 57.44953 12.19250 10905 ft 270 kts
2026-04-23 17:36 57.46825 12.19412 10593 ft 269 kts
2026-04-23 17:36 57.48690 12.19574 10317 ft 266 kts
2026-04-23 17:36 57.50510 12.19733 10203 ft 257 kts
2026-04-23 17:36 57.52274 12.19888 10002 ft 252 kts
2026-04-23 17:37 57.54024 12.20040 9696 ft 251 kts
2026-04-23 17:37 57.55766 12.20190 9413 ft 249 kts
2026-04-23 17:37 57.59198 12.20487 8860 ft 245 kts
2026-04-23 17:38 57.60900 12.20635 8584 ft 244 kts
2026-04-23 17:38 57.62599 12.20783 8265 ft 245 kts
2026-04-23 17:38 57.64303 12.20932 7947 ft 245 kts
2026-04-23 17:38 57.66005 12.21082 7663 ft 244 kts
2026-04-23 17:39 57.67702 12.21231 7381 ft 243 kts
2026-04-23 17:39 57.69370 12.21377 7108 ft 243 kts
2026-04-23 17:39 57.71076 12.21526 6826 ft 242 kts
2026-04-23 17:39 57.72760 12.21674 6557 ft 241 kts
2026-04-23 17:40 57.74433 12.21821 6264 ft 240 kts
2026-04-23 17:40 57.76081 12.21967 5981 ft 240 kts
2026-04-23 17:40 57.77743 12.22114 5688 ft 238 kts
2026-04-23 17:40 57.79395 12.22259 5422 ft 237 kts
2026-04-23 17:41 57.81022 12.22740 5113 ft 238 kts 20°
2026-04-23 17:41 57.83963 12.25601 4590 ft 237 kts 26°
2026-04-23 17:41 57.85381 12.27078 4339 ft 232 kts 33°
2026-04-23 17:42 57.86902 12.32351 3850 ft 241 kts 78°
2026-04-23 17:42 57.87031 12.35481 3587 ft 242 kts 86°
2026-04-23 17:42 57.86594 12.38531 3391 ft 241 kts 118°
2026-04-23 17:43 57.85435 12.40638 3272 ft 229 kts 149°
2026-04-23 17:43 57.83958 12.41499 3164 ft 216 kts 172°
2026-04-23 17:43 57.82518 12.41720 3062 ft 204 kts 177°
2026-04-23 17:43 57.81159 12.41535 3043 ft 190 kts 202°
2026-04-23 17:44 57.79996 12.40484 3052 ft 185 kts 211°
2026-04-23 17:44 57.78831 12.39403 2951 ft 188 kts 208°
2026-04-23 17:44 57.76448 12.37243 2462 ft 189 kts 209°
2026-04-23 17:45 57.75278 12.36178 2207 ft 183 kts 209°
2026-04-23 17:45 57.73122 12.34216 1760 ft 163 kts 210°
2026-04-23 17:45 57.72114 12.33302 1518 ft 158 kts 210°
2026-04-23 17:46 57.70209 12.31573 1074 ft 147 kts 210°
2026-04-23 17:46 57.69304 12.30755 892 ft 142 kts 211°
2026-04-23 17:46 57.68422 12.29952 728 ft 140 kts 210°
2026-04-23 17:47 57.67551 12.29141 548 ft 140 kts 210°
2026-04-23 17:47 57.66741 12.28391 505 ft 118 kts 206°
2026-04-23 17:47 57.66121 12.28044 499 ft 15 kts 115°
2026-04-23 17:48 57.66150 12.28206 500 ft 14 kts 28°
2026-04-23 17:48 57.66239 12.28288 501 ft 15 kts 27°
2026-04-23 17:48 57.66290 12.28337 501 ft 5 kts 27°
2026-04-23 17:48 57.66344 12.28384 502 ft 13 kts 25°
2026-04-23 17:49 57.66430 12.28461 503 ft 15 kts 30°
2026-04-23 17:49 57.66523 12.28546 504 ft 15 kts 25°
2026-04-23 17:49 57.66624 12.28636 505 ft 17 kts 26°
2026-04-23 17:49 57.66748 12.28748 506 ft 22 kts 25°
2026-04-23 17:50 57.66883 12.28873 508 ft 22 kts 27°
2026-04-23 17:50 57.67146 12.29111 510 ft 20 kts 25°
2026-04-23 17:50 57.67271 12.29225 512 ft 20 kts 26°
2026-04-23 17:51 57.67390 12.29340 513 ft 18 kts 36°
2026-04-23 17:51 57.67394 12.29536 513 ft 15 kts 114°
2026-04-23 17:51 57.67390 12.29735 514 ft 5 kts 333°
2026-04-23 17:52 57.67420 12.29700 514 ft 5 kts 340°
2026-04-23 17:52 57.67439 12.29687 514 ft 0 kts 341°